This is the latest recevied weather packets stored in our database for station/object KQ4JKJ. If no packets are shown the sender has not sent any weather packets the latest 1 day(s).
| Time | Temp. | Humidity | Pressure | Rain* | Wind** | Luminosity | Snow |
|---|---|---|---|---|---|---|---|
| 1778035419 | 23.89° C | 77% | 1010.9 hPa | 0 mm | 0.45 m/s, 58° | 0 W/m² | - |
| 1778035115 | 23.89° C | 76% | 1010.9 hPa | 0 mm | 0.45 m/s, 33° | 0 W/m² | - |
| 1778034812 | 23.89° C | 76% | 1010.9 hPa | 0 mm | 0.45 m/s, 117° | 0 W/m² | - |
| 1778034508 | 23.89° C | 76% | 1010.8 hPa | 0 mm | 0.45 m/s, 39° | 0 W/m² | - |
| 1778034206 | 23.89° C | 77% | 1010.5 hPa | 0 mm | 0.89 m/s, 83° | 0 W/m² | - |
| 1778033904 | 23.89° C | 77% | 1010.7 hPa | 0 mm | 0.45 m/s, 13° | 0 W/m² | - |
| 1778033601 | 23.89° C | 77% | 1010.6 hPa | 0 mm | 0.45 m/s, 49° | 0 W/m² | - |
| 1778033297 | 23.89° C | 76% | 1010.6 hPa | 0 mm | 0 m/s | 0 W/m² | - |
| 1778032995 | 23.89° C | 75% | 1010.4 hPa | 0 mm | 0 m/s | 0 W/m² | - |
| 1778032693 | 23.89° C | 73% | 1010.6 hPa | 0 mm | 0 m/s | 0 W/m² | - |
| 1778032390 | 23.89° C | 71% | 1010.7 hPa | 0 mm | 0 m/s | 0 W/m² | - |
| 1778032087 | 23.89° C | 69% | 1010.6 hPa | 0 mm | 0 m/s | 0 W/m² | - |
| 1778031784 | 23.89° C | 70% | 1010.4 hPa | 0 mm | 0 m/s | 0 W/m² | - |
| 1778031480 | 23.89° C | 71% | 1010.4 hPa | 0 mm | 0 m/s | 0 W/m² | - |
| 1778031177 | 23.89° C | 72% | 1010.4 hPa | 0 mm | 0 m/s | 0 W/m² | - |
| 1778030874 | 23.89° C | 72% | 1010.3 hPa | 0 mm | 0 m/s | 0 W/m² | - |
| 1778030571 | 23.89° C | 71% | 1010.3 hPa | 0 mm | 0.45 m/s, 16° | 0 W/m² | - |
| 1778030268 | 23.89° C | 70% | 1010.2 hPa | 0 mm | 0 m/s | 0 W/m² | - |
| 1778029964 | 23.89° C | 70% | 1010 hPa | 0 mm | 0.45 m/s, 28° | 0 W/m² | - |
| 1778029663 | 23.89° C | 69% | 1009.9 hPa | 0 mm | 0.89 m/s, 96° | 0 W/m² | - |
| 1778029360 | 23.89° C | 67% | 1009.7 hPa | 0 mm | 0.45 m/s, 64° | 0 W/m² | - |
| 1778029057 | 23.89° C | 68% | 1010.1 hPa | 0 mm | 0.45 m/s, 40° | 0 W/m² | - |
| 1778028754 | 23.89° C | 70% | 1009.8 hPa | 0 mm | 0.89 m/s, 18° | 0 W/m² | - |
| 1778028449 | 23.89° C | 71% | 1009.9 hPa | 0 mm | 0 m/s | 0 W/m² | - |
| 1778028147 | 23.89° C | 72% | 1009.8 hPa | 0 mm | 0.89 m/s, 143° | 0 W/m² | - |
* Rain latest hour (hover to see other rain measurements)
** Current wind speed in m/s (hover to see current wind gust speed)